| time (UTC) | temp C | wind direction | speed KPH | gust KPH | rain 1hr cm | rain 24hr cm | rain mn cm | humidity % | barometer mb |
| 20260505234308 | 16 | 171 | 3.2 | 8.0 | 0.00 | 0.00 | 0.03 | 67 | 1015.9 |
| 20260505233808 | 16 | 123 | 0.0 | 1.6 | 0.00 | 0.00 | 0.03 | 67 | 1015.9 |
| 20260505233308 | 16 | 212 | 4.8 | 6.4 | 0.00 | 0.00 | 0.03 | 67 | 1015.9 |
| 20260505232808 | 16 | 185 | 1.6 | 3.2 | 0.00 | 0.00 | 0.03 | 66 | 1016.0 |
| 20260505232309 | 16 | 186 | 1.6 | 3.2 | 0.00 | 0.00 | 0.03 | 66 | 1016.0 |
| 20260505231807 | 16 | 186 | 1.6 | 4.8 | 0.00 | 0.00 | 0.03 | 67 | 1016.0 |
| 20260505231308 | 16 | 192 | 3.2 | 4.8 | 0.00 | 0.00 | 0.03 | 66 | 1016.0 |
| 20260505230322 | 16 | 172 | 1.6 | 3.2 | 0.00 | 0.00 | 0.03 | 67 | 1016.0 |
| 20260505225808 | 17 | 250 | 0.0 | 1.6 | 0.00 | 0.00 | 0.03 | 66 | 1016.0 |
| 20260505225308 | 17 | 146 | 1.6 | 6.4 | 0.00 | 0.00 | 0.03 | 66 | 1016.0 |
| 20260505224807 | 17 | 250 | 0.0 | 1.6 | 0.00 | 0.00 | 0.03 | 66 | 1016.0 |
| 20260505224308 | 16 | 286 | 0.0 | 3.2 | 0.00 | 0.00 | 0.03 | 66 | 1016.0 |
| 20260505223807 | 16 | 18 | 0.0 | 1.6 | 0.00 | 0.00 | 0.03 | 68 | 1016.1 |
| 20260505223308 | 16 | 48 | 3.2 | 6.4 | 0.00 | 0.00 | 0.03 | 67 | 1016.1 |
| 20260505222807 | 16 | 53 | 4.8 | 6.4 | 0.00 | 0.00 | 0.03 | 68 | 1016.2 |
| 20260505222307 | 16 | 1 | 0.0 | 1.6 | 0.00 | 0.00 | 0.03 | 68 | 1016.2 |
| 20260505221808 | 16 | 66 | 4.8 | 6.4 | 0.00 | 0.00 | 0.03 | 69 | 1016.2 |
| 20260505221307 | 16 | 350 | 4.8 | 8.0 | 0.00 | 0.00 | 0.03 | 69 | 1016.3 |
| 20260505220807 | 16 | 50 | 4.8 | 8.0 | 0.00 | 0.00 | 0.03 | 68 | 1016.3 |
| 20260505220308 | 16 | 44 | 6.4 | 9.7 | 0.00 | 0.00 | 0.03 | 69 | 1016.3 |
| 20260505215807 | 16 | 37 | 4.8 | 6.4 | 0.00 | 0.00 | 0.03 | 69 | 1016.3 |
| 20260505215307 | 16 | 45 | 3.2 | 6.4 | 0.00 | 0.00 | 0.03 | 70 | 1016.3 |
| 20260505214807 | 16 | 17 | 4.8 | 6.4 | 0.00 | 0.00 | 0.03 | 69 | 1016.3 |
| 20260505214307 | 16 | 33 | 4.8 | 9.7 | 0.00 | 0.00 | 0.03 | 69 | 1016.4 |
| 20260505213809 | 16 | 40 | 4.8 | 8.0 | 0.00 | 0.00 | 0.03 | 68 | 1016.5 |
| 20260505213308 | 16 | 52 | 3.2 | 6.4 | 0.00 | 0.00 | 0.03 | 69 | 1016.5 |
| 20260505212808 | 16 | 33 | 4.8 | 6.4 | 0.00 | 0.00 | 0.03 | 69 | 1016.6 |
| 20260505212308 | 16 | 44 | 3.2 | 4.8 | 0.00 | 0.00 | 0.03 | 69 | 1016.5 |
| 20260505211810 | 16 | 33 | 6.4 | 9.7 | 0.00 | 0.00 | 0.03 | 69 | 1016.5 |
| 20260505211308 | 16 | 47 | 6.4 | 8.0 | 0.00 | 0.00 | 0.03 | 70 | 1016.5 |
| 20260505210807 | 16 | 32 | 6.4 | 9.7 | 0.00 | 0.00 | 0.03 | 70 | 1016.5 |
| 20260505210307 | 16 | 40 | 4.8 | 9.7 | 0.00 | 0.00 | 0.03 | 70 | 1016.5 |
| 20260505205807 | 16 | 0 | 4.8 | 8.0 | 0.00 | 0.00 | 0.03 | 69 | 1016.4 |
| 20260505205307 | 16 | 4 | 3.2 | 6.4 | 0.00 | 0.00 | 0.03 | 68 | 1016.4 |
| 20260505204808 | 16 | 36 | 3.2 | 4.8 | 0.00 | 0.00 | 0.03 | 67 | 1016.4 |
| 20260505204308 | 16 | 4 | 3.2 | 6.4 | 0.00 | 0.00 | 0.03 | 68 | 1016.4 |
| 20260505203807 | 16 | 42 | 3.2 | 4.8 | 0.00 | 0.00 | 0.03 | 67 | 1016.4 |
| 20260505203308 | 16 | 278 | 4.8 | 6.4 | 0.00 | 0.00 | 0.03 | 67 | 1016.4 |
| 20260505202807 | 16 | 202 | 3.2 | 6.4 | 0.00 | 0.00 | 0.03 | 69 | 1016.4 |
| 20260505202308 | 16 | 206 | 3.2 | 4.8 | 0.00 | 0.00 | 0.03 | 71 | 1016.4 |
| 20260505201807 | 15 | 277 | 3.2 | 4.8 | 0.00 | 0.00 | 0.03 | 72 | 1016.5 |
| 20260505201308 | 16 | 277 | 3.2 | 6.4 | 0.00 | 0.00 | 0.03 | 73 | 1016.6 |
| 20260505200808 | 15 | 302 | 1.6 | 3.2 | 0.00 | 0.00 | 0.03 | 73 | 1016.7 |
| 20260505200309 | 15 | 320 | 1.6 | 4.8 | 0.00 | 0.00 | 0.03 | 73 | 1016.7 |
| 20260505195808 | 15 | 337 | 3.2 | 3.2 | 0.00 | 0.00 | 0.03 | 74 | 1016.7 |
| 20260505195308 | 15 | 202 | 0.0 | 1.6 | 0.00 | 0.00 | 0.03 | 74 | 1016.8 |
| 20260505194808 | 15 | 259 | 1.6 | 3.2 | 0.00 | 0.00 | 0.03 | 75 | 1016.8 |
| 20260505194308 | 15 | 291 | 3.2 | 4.8 | 0.00 | 0.00 | 0.03 | 75 | 1016.8 |
| 20260505193808 | 15 | 285 | 1.6 | 3.2 | 0.00 | 0.00 | 0.03 | 74 | 1016.8 |
| 20260505193307 | 15 | 303 | 3.2 | 6.4 | 0.00 | 0.00 | 0.03 | 74 | 1016.9 |
| 20260505192807 | 15 | 280 | 3.2 | 6.4 | 0.00 | 0.00 | 0.03 | 73 | 1016.9 |
| 20260505192307 | 15 | 275 | 1.6 | 3.2 | 0.00 | 0.00 | 0.03 | 74 | 1016.8 |
| 20260505191808 | 15 | 265 | 3.2 | 6.4 | 0.00 | 0.00 | 0.03 | 73 | 1016.8 |
| 20260505191307 | 15 | 213 | 3.2 | 6.4 | 0.00 | 0.00 | 0.03 | 72 | 1016.7 |
| 20260505190807 | 15 | 239 | 3.2 | 4.8 | 0.00 | 0.00 | 0.03 | 73 | 1016.7 |
| 20260505190307 | 15 | 157 | 1.6 | 3.2 | 0.00 | 0.00 | 0.03 | 73 | 1016.7 |
| 20260505185808 | 15 | 211 | 3.2 | 4.8 | 0.00 | 0.00 | 0.03 | 74 | 1016.7 |
| 20260505185307 | 15 | 206 | 3.2 | 4.8 | 0.00 | 0.00 | 0.03 | 74 | 1016.7 |
| 20260505184808 | 15 | 285 | 4.8 | 6.4 | 0.00 | 0.00 | 0.03 | 74 | 1016.7 |
| 20260505184308 | 15 | 224 | 1.6 | 3.2 | 0.00 | 0.00 | 0.03 | 74 | 1016.7 |
| 20260505183808 | 14 | 258 | 1.6 | 3.2 | 0.00 | 0.00 | 0.03 | 75 | 1016.7 |
| 20260505183307 | 14 | 287 | 3.2 | 6.4 | 0.00 | 0.00 | 0.03 | 75 | 1016.8 |
| 20260505182810 | 14 | 236 | 3.2 | 6.4 | 0.00 | 0.00 | 0.03 | 75 | 1016.8 |
| 20260505182308 | 14 | 216 | 3.2 | 6.4 | 0.00 | 0.00 | 0.03 | 76 | 1016.7 |
| 20260505181808 | 14 | 354 | 3.2 | 4.8 | 0.00 | 0.00 | 0.03 | 75 | 1016.7 |
| 20260505181307 | 14 | 86 | 0.0 | 1.6 | 0.00 | 0.00 | 0.03 | 75 | 1016.7 |
| 20260505180809 | 14 | 62 | 3.2 | 4.8 | 0.00 | 0.00 | 0.03 | 75 | 1016.7 |
| 20260505180308 | 13 | 82 | 1.6 | 4.8 | 0.00 | 0.00 | 0.03 | 75 | 1016.6 |
| 20260505175808 | 13 | 296 | 3.2 | 4.8 | 0.00 | 0.00 | 0.03 | 76 | 1016.6 |
| 20260505175307 | 13 | 261 | 1.6 | 4.8 | 0.00 | 0.00 | 0.03 | 76 | 1016.6 |
| 20260505174807 | 13 | 270 | 1.6 | 3.2 | 0.00 | 0.00 | 0.03 | 76 | 1016.6 |
| 20260505174309 | 13 | 318 | 1.6 | 3.2 | 0.00 | 0.00 | 0.03 | 75 | 1016.6 |
| 20260505173809 | 13 | 338 | 4.8 | 8.0 | 0.00 | 0.00 | 0.03 | 75 | 1016.5 |
| 20260505173308 | 14 | 196 | 3.2 | 6.4 | 0.00 | 0.00 | 0.03 | 74 | 1016.4 |
| 20260505172808 | 14 | 354 | 1.6 | 3.2 | 0.00 | 0.00 | 0.03 | 74 | 1016.4 |
| 20260505172307 | 14 | 320 | 1.6 | 3.2 | 0.00 | 0.00 | 0.03 | 74 | 1016.3 |
| 20260505171809 | 14 | 307 | 1.6 | 1.6 | 0.00 | 0.00 | 0.03 | 73 | 1016.2 |
| 20260505171308 | 14 | 335 | 1.6 | 3.2 | 0.00 | 0.00 | 0.03 | 74 | 1016.2 |
| 20260505170808 | 14 | 305 | 1.6 | 3.2 | 0.00 | 0.00 | 0.03 | 72 | 1016.2 |
| 20260505170308 | 14 | 268 | 0.0 | 3.2 | 0.00 | 0.00 | 0.03 | 71 | 1016.2 |
| 20260505165808 | 13 | 0 | 0.0 | 0.0 | 0.00 | 0.00 | 0.03 | 72 | 1016.2 |
| 20260505165308 | 13 | 356 | 1.6 | 3.2 | 0.00 | 0.00 | 0.03 | 71 | 1016.2 |
| 20260505164808 | 13 | 354 | 0.0 | 0.0 | 0.00 | 0.00 | 0.03 | 72 | 1016.2 |
| 20260505164024 | 13 | 113 | 1.6 | 3.2 | 0.00 | 0.00 | 0.03 | 71 | 1016.1 |
| 20260505163307 | 13 | 179 | 3.2 | 4.8 | 0.00 | 0.00 | 0.03 | 72 | 1016.1 |
| 20260505162808 | 13 | 213 | 0.0 | 0.0 | 0.00 | 0.00 | 0.03 | 73 | 1016.1 |
| 20260505162307 | 13 | 0 | 0.0 | 0.0 | 0.00 | 0.00 | 0.03 | 73 | 1016.1 |
| 20260505161807 | 13 | 186 | 0.0 | 1.6 | 0.00 | 0.00 | 0.03 | 73 | 1016.1 |
| 20260505161308 | 13 | 161 | 1.6 | 3.2 | 0.00 | 0.00 | 0.03 | 73 | 1016.1 |
| 20260505160808 | 13 | 201 | 0.0 | 1.6 | 0.00 | 0.00 | 0.03 | 75 | 1016.0 |
| 20260505160308 | 13 | 213 | 1.6 | 3.2 | 0.00 | 0.00 | 0.03 | 75 | 1016.0 |
| 20260505153308 | 12 | 112 | 3.2 | 6.4 | 0.00 | 0.00 | 0.03 | 78 | 1015.9 |
| 20260505152809 | 12 | 124 | 3.2 | 4.8 | 0.00 | 0.00 | 0.03 | 79 | 1015.9 |
| 20260505152308 | 12 | 120 | 1.6 | 4.8 | 0.00 | 0.00 | 0.03 | 79 | 1015.9 |
| 20260505151808 | 12 | 141 | 3.2 | 4.8 | 0.00 | 0.00 | 0.03 | 78 | 1015.8 |
| 20260505151308 | 12 | 182 | 3.2 | 6.4 | 0.00 | 0.00 | 0.03 | 79 | 1015.8 |
| 20260505150807 | 12 | 168 | 3.2 | 4.8 | 0.00 | 0.00 | 0.03 | 80 | 1015.7 |
| 20260505150309 | 12 | 225 | 1.6 | 3.2 | 0.00 | 0.00 | 0.03 | 83 | 1015.7 |
| 20260505140319 | 11 | 191 | 0.0 | 1.6 | 0.00 | 0.00 | 0.03 | 86 | 1015.4 |
| 20260505130308 | 11 | 207 | 1.6 | 3.2 | 0.00 | 0.00 | 0.03 | 88 | 1015.0 |
| 20260505124808 | 11 | 224 | 0.0 | 3.2 | 0.00 | 0.00 | 0.03 | 89 | 1015.2 |
| 20260505124307 | 11 | 226 | 0.0 | 1.6 | 0.00 | 0.00 | 0.03 | 88 | 1015.2 |
| 20260505123807 | 11 | 220 | 1.6 | 3.2 | 0.00 | 0.00 | 0.03 | 89 | 1015.3 |
| 20260505123308 | 11 | 189 | 0.0 | 1.6 | 0.00 | 0.00 | 0.03 | 88 | 1015.4 |
| 20260505122807 | 11 | 199 | 0.0 | 3.2 | 0.00 | 0.00 | 0.03 | 88 | 1015.3 |
| 20260505122307 | 11 | 180 | 1.6 | 3.2 | 0.00 | 0.00 | 0.03 | 88 | 1015.4 |
| 20260505121807 | 11 | 202 | 0.0 | 1.6 | 0.00 | 0.00 | 0.03 | 88 | 1015.4 |
| 20260505121308 | 11 | 183 | 0.0 | 1.6 | 0.00 | 0.00 | 0.03 | 88 | 1015.4 |
| 20260505120808 | 11 | 165 | 0.0 | 3.2 | 0.03 | 0.00 | 0.03 | 89 | 1015.3 |
| 20260505120307 | 11 | 173 | 0.0 | 1.6 | 0.03 | 0.00 | 0.03 | 89 | 1015.3 |
| 20260505115808 | 11 | 142 | 1.6 | 3.2 | 0.03 | 0.00 | 0.03 | 90 | 1015.2 |
| 20260505115307 | 11 | 185 | 1.6 | 1.6 | 0.03 | 0.00 | 0.03 | 89 | 1015.3 |
| 20260505114808 | 11 | 199 | 0.0 | 1.6 | 0.03 | 0.00 | 0.03 | 89 | 1015.3 |
| 20260505114308 | 11 | 220 | 0.0 | 0.0 | 0.03 | 0.00 | 0.03 | 88 | 1015.4 |
| 20260505113807 | 11 | 0 | 0.0 | 0.0 | 0.03 | 0.00 | 0.03 | 86 | 1015.4 |
| 20260505113308 | 11 | 0 | 0.0 | 0.0 | 0.03 | 0.00 | 0.03 | 86 | 1015.4 |
| 20260505112807 | 11 | 233 | 0.0 | 1.6 | 0.03 | 0.00 | 0.03 | 86 | 1015.4 |
| 20260505112307 | 11 | 0 | 0.0 | 0.0 | 0.03 | 0.00 | 0.03 | 84 | 1015.3 |
| 20260505111808 | 11 | 244 | 0.0 | 3.2 | 0.03 | 0.00 | 0.03 | 84 | 1015.4 |
| 20260505111309 | 11 | 23 | 0.0 | 0.0 | 0.03 | 0.00 | 0.03 | 83 | 1015.4 |
| 20260505110807 | 11 | 328 | 0.0 | 1.6 | 0.00 | 0.00 | 0.03 | 82 | 1015.4 |
| 20260505110308 | 11 | 329 | 1.6 | 3.2 | 0.00 | 0.00 | 0.00 | 82 | 1015.3 |
| 20260505101808 | 11 | 296 | 1.6 | 3.2 | 0.00 | 0.00 | 0.00 | 79 | 1015.3 |
| 20260505101308 | 11 | 247 | 0.0 | 0.0 | 0.00 | 0.00 | 0.00 | 79 | 1015.4 |
| 20260505100807 | 11 | 339 | 0.0 | 1.6 | 0.00 | 0.00 | 0.00 | 80 | 1015.5 |
| 20260505100307 | 11 | 326 | 0.0 | 1.6 | 0.00 | 0.00 | 0.00 | 79 | 1015.5 |
| 20260505095808 | 12 | 279 | 1.6 | 3.2 | 0.00 | 0.00 | 0.00 | 78 | 1015.5 |
| 20260505095308 | 12 | 313 | 0.0 | 3.2 | 0.00 | 0.00 | 0.00 | 78 | 1015.5 |
| 20260505094807 | 12 | 322 | 0.0 | 1.6 | 0.00 | 0.00 | 0.00 | 78 | 1015.5 |
| 20260505094308 | 12 | 178 | 0.0 | 1.6 | 0.00 | 0.00 | 0.00 | 77 | 1015.5 |
| 20260505093807 | 12 | 296 | 1.6 | 3.2 | 0.00 | 0.00 | 0.00 | 76 | 1015.5 |
| 20260505093310 | 12 | 323 | 0.0 | 1.6 | 0.00 | 0.00 | 0.00 | 75 | 1015.6 |
| 20260505092808 | 12 | 322 | 1.6 | 3.2 | 0.00 | 0.00 | 0.00 | 74 | 1015.6 |
| 20260505092307 | 12 | 283 | 1.6 | 3.2 | 0.00 | 0.00 | 0.00 | 73 | 1015.5 |
| 20260505091807 | 12 | 309 | 0.0 | 1.6 | 0.00 | 0.00 | 0.00 | 73 | 1015.5 |
| 20260505091307 | 12 | 244 | 0.0 | 3.2 | 0.00 | 0.00 | 0.00 | 73 | 1015.5 |
| 20260505090808 | 12 | 291 | 1.6 | 3.2 | 0.00 | 0.00 | 0.00 | 72 | 1015.6 |
| 20260505090308 | 12 | 300 | 0.0 | 1.6 | 0.00 | 0.00 | 0.00 | 72 | 1015.7 |
| 20260505085807 | 12 | 279 | 1.6 | 3.2 | 0.00 | 0.00 | 0.00 | 72 | 1015.8 |
| 20260505085308 | 12 | 282 | 3.2 | 4.8 | 0.00 | 0.00 | 0.00 | 71 | 1015.8 |
| 20260505084809 | 12 | 285 | 3.2 | 6.4 | 0.00 | 0.00 | 0.00 | 71 | 1015.8 |
| 20260505084308 | 12 | 281 | 1.6 | 4.8 | 0.00 | 0.00 | 0.00 | 71 | 1015.9 |
| 20260505083807 | 12 | 285 | 6.4 | 9.7 | 0.00 | 0.00 | 0.00 | 70 | 1016.0 |
| 20260505083307 | 12 | 327 | 3.2 | 6.4 | 0.00 | 0.00 | 0.00 | 71 | 1016.1 |
| 20260505082808 | 12 | 309 | 1.6 | 3.2 | 0.00 | 0.00 | 0.00 | 70 | 1016.1 |
| 20260505082307 | 12 | 299 | 3.2 | 6.4 | 0.00 | 0.00 | 0.00 | 70 | 1016.2 |
| 20260505081808 | 12 | 272 | 3.2 | 6.4 | 0.00 | 0.00 | 0.00 | 70 | 1016.1 |
| 20260505081308 | 12 | 292 | 6.4 | 9.7 | 0.00 | 0.00 | 0.00 | 69 | 1016.0 |
| 20260505080808 | 12 | 308 | 1.6 | 3.2 | 0.00 | 0.00 | 0.00 | 69 | 1016.1 |
| 20260505080307 | 12 | 300 | 4.8 | 6.4 | 0.00 | 0.00 | 0.00 | 69 | 1016.1 |
| 20260505075807 | 12 | 295 | 6.4 | 9.7 | 0.00 | 0.00 | 0.00 | 68 | 1016.2 |
| 20260505075308 | 12 | 304 | 3.2 | 4.8 | 0.00 | 0.00 | 0.00 | 69 | 1016.2 |
| 20260505074808 | 12 | 299 | 3.2 | 6.4 | 0.00 | 0.00 | 0.00 | 69 | 1016.2 |
| 20260505074310 | 12 | 300 | 4.8 | 9.7 | 0.00 | 0.00 | 0.00 | 69 | 1016.2 |
| 20260505073807 | 12 | 294 | 6.4 | 11.3 | 0.00 | 0.00 | 0.00 | 69 | 1016.2 |
| 20260505073308 | 12 | 312 | 3.2 | 6.4 | 0.00 | 0.00 | 0.00 | 71 | 1016.2 |
| 20260505072807 | 12 | 327 | 3.2 | 4.8 | 0.00 | 0.00 | 0.00 | 72 | 1016.2 |
| 20260505072307 | 12 | 286 | 3.2 | 4.8 | 0.00 | 0.00 | 0.00 | 74 | 1016.1 |
| 20260505071810 | 12 | 289 | 4.8 | 4.8 | 0.00 | 0.00 | 0.00 | 75 | 1016.1 |
| 20260505071307 | 12 | 294 | 3.2 | 4.8 | 0.00 | 0.00 | 0.00 | 75 | 1016.0 |
| 20260505070807 | 12 | 301 | 0.0 | 3.2 | 0.00 | 0.00 | 0.00 | 75 | 1016.0 |
| 20260505070307 | 12 | 281 | 3.2 | 6.4 | 0.00 | 0.00 | 0.00 | 75 | 1015.9 |
| 20260505065808 | 12 | 304 | 3.2 | 4.8 | 0.00 | 0.00 | 0.00 | 76 | 1015.8 |
| 20260505065307 | 12 | 299 | 3.2 | 6.4 | 0.00 | 0.00 | 0.00 | 75 | 1015.8 |
| 20260505064807 | 12 | 314 | 1.6 | 4.8 | 0.00 | 0.00 | 0.00 | 76 | 1015.8 |
| 20260505064308 | 12 | 308 | 1.6 | 4.8 | 0.00 | 0.00 | 0.00 | 76 | 1015.8 |
| 20260505063808 | 12 | 291 | 1.6 | 3.2 | 0.00 | 0.00 | 0.00 | 76 | 1015.8 |
| 20260505063308 | 12 | 312 | 3.2 | 4.8 | 0.00 | 0.00 | 0.00 | 76 | 1015.8 |
| 20260505062807 | 12 | 287 | 4.8 | 6.4 | 0.00 | 0.00 | 0.00 | 77 | 1015.8 |
| 20260505062310 | 12 | 310 | 1.6 | 3.2 | 0.00 | 0.00 | 0.00 | 79 | 1015.8 |
| 20260505061327 | 12 | 305 | 4.8 | 6.4 | 0.00 | 0.00 | 0.00 | 79 | 1015.6 |
| 20260505060807 | 13 | 268 | 1.6 | 4.8 | 0.00 | 0.00 | 0.00 | 79 | 1015.6 |
| 20260505060308 | 13 | 282 | 3.2 | 4.8 | 0.00 | 0.00 | 0.00 | 79 | 1015.6 |
| 20260505055807 | 13 | 295 | 3.2 | 4.8 | 0.00 | 0.00 | 0.00 | 79 | 1015.6 |
| 20260505055307 | 13 | 293 | 3.2 | 3.2 | 0.00 | 0.00 | 0.00 | 79 | 1015.7 |
| 20260505054808 | 13 | 324 | 3.2 | 6.4 | 0.00 | 0.00 | 0.00 | 79 | 1015.7 |
| 20260505054308 | 13 | 308 | 4.8 | 6.4 | 0.00 | 0.00 | 0.00 | 79 | 1015.8 |
| 20260505053807 | 13 | 264 | 4.8 | 8.0 | 0.00 | 0.00 | 0.00 | 79 | 1015.8 |
| 20260505053308 | 13 | 299 | 3.2 | 4.8 | 0.00 | 0.00 | 0.00 | 79 | 1015.8 |
| 20260505052808 | 13 | 306 | 3.2 | 6.4 | 0.00 | 0.00 | 0.00 | 79 | 1016.0 |
| 20260505052308 | 13 | 330 | 3.2 | 6.4 | 0.00 | 0.00 | 0.00 | 79 | 1016.1 |
| 20260505051809 | 13 | 286 | 3.2 | 6.4 | 0.00 | 0.00 | 0.00 | 78 | 1016.1 |
| 20260505051307 | 13 | 286 | 4.8 | 9.7 | 0.00 | 0.00 | 0.00 | 77 | 1016.1 |
| 20260505050807 | 13 | 327 | 3.2 | 4.8 | 0.00 | 0.00 | 0.00 | 77 | 1016.1 |
| 20260505050307 | 13 | 329 | 3.2 | 6.4 | 0.00 | 0.00 | 0.00 | 77 | 1016.1 |
| 20260505041307 | 13 | 313 | 3.2 | 4.8 | 0.00 | 0.00 | 0.00 | 75 | 1015.6 |
| 20260505040808 | 13 | 319 | 4.8 | 8.0 | 0.00 | 0.00 | 0.00 | 75 | 1015.6 |
| 20260505040307 | 13 | 327 | 3.2 | 4.8 | 0.00 | 0.00 | 0.00 | 75 | 1015.6 |
| 20260505035808 | 13 | 322 | 1.6 | 3.2 | 0.00 | 0.00 | 0.00 | 74 | 1015.5 |
| 20260505035310 | 13 | 278 | 3.2 | 6.4 | 0.00 | 0.00 | 0.00 | 73 | 1015.5 |
| 20260505034808 | 14 | 272 | 3.2 | 6.4 | 0.00 | 0.00 | 0.00 | 73 | 1015.5 |
| 20260505034308 | 14 | 283 | 3.2 | 8.0 | 0.00 | 0.00 | 0.00 | 72 | 1015.4 |
| 20260505033807 | 14 | 325 | 4.8 | 8.0 | 0.00 | 0.00 | 0.00 | 71 | 1015.3 |
| 20260505033308 | 14 | 308 | 3.2 | 4.8 | 0.00 | 0.00 | 0.00 | 70 | 1015.2 |
| 20260505032810 | 14 | 304 | 4.8 | 8.0 | 0.00 | 0.00 | 0.00 | 70 | 1015.1 |
| 20260505032308 | 14 | 262 | 1.6 | 3.2 | 0.00 | 0.00 | 0.00 | 69 | 1014.9 |
| 20260505031808 | 15 | 336 | 3.2 | 6.4 | 0.00 | 0.00 | 0.00 | 68 | 1015.0 |
| 20260505031307 | 15 | 267 | 6.4 | 11.3 | 0.00 | 0.00 | 0.00 | 67 | 1015.0 |
| 20260505030807 | 15 | 310 | 3.2 | 6.4 | 0.00 | 0.00 | 0.00 | 67 | 1015.0 |
| 20260505030307 | 15 | 320 | 3.2 | 6.4 | 0.00 | 0.00 | 0.00 | 66 | 1015.0 |
| 20260505025809 | 15 | 272 | 1.6 | 3.2 | 0.00 | 0.00 | 0.00 | 65 | 1015.0 |
| 20260505025310 | 15 | 304 | 3.2 | 8.0 | 0.00 | 0.00 | 0.00 | 65 | 1014.9 |
| 20260505024810 | 15 | 338 | 3.2 | 6.4 | 0.00 | 0.00 | 0.00 | 63 | 1014.9 |
| 20260505024309 | 15 | 294 | 3.2 | 4.8 | 0.00 | 0.00 | 0.00 | 63 | 1014.9 |
| 20260505023808 | 15 | 305 | 3.2 | 3.2 | 0.00 | 0.00 | 0.00 | 63 | 1014.9 |
| 20260505023307 | 15 | 325 | 4.8 | 9.7 | 0.00 | 0.00 | 0.00 | 63 | 1014.9 |
| 20260505022810 | 15 | 341 | 3.2 | 6.4 | 0.00 | 0.00 | 0.00 | 63 | 1014.9 |
| 20260505022311 | 15 | 329 | 4.8 | 9.7 | 0.00 | 0.00 | 0.00 | 63 | 1014.8 |
| 20260505021809 | 15 | 283 | 3.2 | 8.0 | 0.00 | 0.00 | 0.00 | 62 | 1014.8 |
| 20260505021310 | 15 | 310 | 3.2 | 6.4 | 0.00 | 0.00 | 0.00 | 60 | 1015.0 |
| 20260505020809 | 15 | 293 | 3.2 | 6.4 | 0.00 | 0.00 | 0.00 | 59 | 1014.9 |
| 20260505020308 | 15 | 285 | 3.2 | 4.8 | 0.00 | 0.00 | 0.00 | 59 | 1014.8 |
| 20260505015808 | 15 | 295 | 4.8 | 6.4 | 0.00 | 0.00 | 0.00 | 59 | 1014.9 |
| 20260505015308 | 15 | 335 | 6.4 | 11.3 | 0.00 | 0.00 | 0.00 | 58 | 1014.8 |
| 20260505014807 | 16 | 302 | 3.2 | 6.4 | 0.00 | 0.00 | 0.00 | 57 | 1014.9 |
| 20260505014307 | 16 | 326 | 3.2 | 8.0 | 0.00 | 0.00 | 0.00 | 58 | 1014.9 |
| 20260505013807 | 16 | 347 | 4.8 | 11.3 | 0.00 | 0.00 | 0.00 | 57 | 1014.9 |
| 20260505013307 | 16 | 336 | 4.8 | 11.3 | 0.00 | 0.00 | 0.00 | 58 | 1014.9 |
| 20260505012807 | 16 | 332 | 6.4 | 11.3 | 0.00 | 0.00 | 0.00 | 58 | 1014.9 |
| 20260505012307 | 16 | 337 | 6.4 | 11.3 | 0.00 | 0.00 | 0.00 | 59 | 1014.9 |
| 20260505011807 | 17 | 307 | 3.2 | 4.8 | 0.00 | 0.00 | 0.00 | 59 | 1015.0 |
| 20260505011308 | 17 | 321 | 4.8 | 6.4 | 0.00 | 0.00 | 0.00 | 58 | 1015.0 |
| 20260505010807 | 17 | 278 | 3.2 | 4.8 | 0.00 | 0.00 | 0.00 | 58 | 1014.9 |
| 20260505010318 | 17 | 330 | 6.4 | 11.3 | 0.00 | 0.00 | 0.00 | 57 | 1015.1 |
| 20260505005809 | 16 | 341 | 4.8 | 9.7 | 0.00 | 0.00 | 0.00 | 59 | 1015.1 |
| 20260505005307 | 16 | 303 | 4.8 | 11.3 | 0.00 | 0.00 | 0.00 | 60 | 1015.1 |
| 20260505004808 | 16 | 301 | 4.8 | 8.0 | 0.00 | 0.00 | 0.00 | 60 | 1015.1 |
| 20260505004308 | 16 | 304 | 8.0 | 9.7 | 0.00 | 0.00 | 0.00 | 60 | 1015.2 |
| 20260505003807 | 16 | 252 | 3.2 | 4.8 | 0.00 | 0.00 | 0.00 | 62 | 1015.2 |
| 20260505003307 | 16 | 302 | 4.8 | 11.3 | 0.00 | 0.00 | 0.00 | 63 | 1015.2 |
| 20260505002807 | 16 | 302 | 8.0 | 11.3 | 0.00 | 0.00 | 0.00 | 63 | 1015.2 |
| 20260505002308 | 16 | 298 | 6.4 | 11.3 | 0.00 | 0.00 | 0.00 | 63 | 1015.2 |
| 20260505001807 | 16 | 313 | 4.8 | 8.0 | 0.00 | 0.00 | 0.00 | 64 | 1015.3 |
| 20260505001308 | 16 | 309 | 4.8 | 8.0 | 0.00 | 0.00 | 0.00 | 64 | 1015.2 |
| 20260505000808 | 16 | 270 | 4.8 | 6.4 | 0.00 | 0.00 | 0.00 | 65 | 1015.2 |
| 20260505000307 | 16 | 263 | 3.2 | 6.4 | 0.00 | 0.00 | 0.00 | 65 | 1015.2 |
| 20260504235808 | 16 | 299 | 8.0 | 11.3 | 0.00 | 0.00 | 0.00 | 64 | 1015.2 |
| 20260504235307 | 16 | 266 | 3.2 | 6.4 | 0.00 | 0.00 | 0.00 | 65 | 1015.2 |
| 20260504234809 | 16 | 282 | 3.2 | 6.4 | 0.00 | 0.00 | 0.00 | 65 | 1015.2 |